Theta_e
310 311 312 313 314 315 315 315 315 315 315 317 318 318 318 318 319 319 321 322 322 324 326 316 317 315 318 322 325 328 324 323 321 321 327 331 330 337 338 335 334 339 340 338 341 341 339
309 309 309 309 310 311 312 312 312 312 312 314 316 316 317 318 318 319 320 322 322 324 327 319 320 314 316 327 326 326 322 321 323 323 329 329 331 337 336 335 335 338 339 338 339 337 340
307 308 308 308 308 308 309 309 310 310 311 311 313 314 315 316 317 319 319 321 321 324 327 322 320 313 326 324 327 328 326 320 324 326 328 328 332 336 334 334 338 338 339 339 338 340 341
305 305 306 307 307 307 307 307 308 308 309 310 310 312 314 314 316 318 319 321 321 324 327 323 320 315 329 328 327 329 326 323 323 325 327 328 335 333 333 334 336 338 340 339 341 341 338
304 304 304 305 305 305 306 306 307 307 307 308 309 310 311 313 314 317 319 320 322 324 327 325 321 332 333 326 326 330 327 324 323 326 327 329 335 332 333 334 339 338 341 341 343 340 340
303 303 304 304 304 304 305 305 306 306 307 307 308 309 310 311 312 316 320 320 322 329 327 323 323 331 333 333 326 329 328 324 326 326 327 333 334 333 333 335 339 339 341 343 344 342 342
303 303 303 303 304 304 304 305 305 306 306 306 307 308 309 310 311 314 320 320 331 337 333 332 330 328 330 331 328 326 327 324 325 326 331 334 333 332 333 335 337 339 339 342 341 344 345
303 303 303 303 303 304 304 304 305 305 306 306 306 307 308 310 311 313 317 318 328 327 330 329 331 331 330 328 328 325 325 326 326 329 331 333 332 333 334 335 335 336 337 338 340 340 342
303 303 303 303 303 303 303 303 304 305 305 306 306 307 308 310 311 317 326 325 325 326 329 328 328 328 330 329 328 326 326 326 327 330 331 332 332 333 333 333 333 334 334 335 339 340 339
304 304 303 303 303 303 303 303 304 304 305 306 306 306 307 309 312 321 322 325 327 326 330 329 329 328 329 329 329 326 326 327 328 330 331 331 332 333 333 332 332 332 333 333 334 337 338
304 304 303 303 303 303 303 304 304 304 305 305 306 306 307 306 309 312 319 320 322 327 331 330 329 328 328 330 328 327 326 326 329 330 330 330 331 332 332 333 333 332 333 332 333 333 334
305 303 303 302 303 302 303 303 303 303 304 305 306 306 307 307 311 315 317 320 322 332 329 330 330 329 330 329 328 328 327 326 328 330 330 330 330 331 331 332 332 332 335 334 333 333 336
304 304 303 302 302 302 302 302 302 303 303 304 305 306 306 307 311 315 318 320 328 333 329 329 329 330 330 330 328 329 328 327 328 330 329 330 331 332 332 332 333 333 335 337 337 337 337
304 304 303 302 302 301 302 302 302 303 303 304 306 307 308 309 311 311 313 322 330 332 331 330 330 330 329 330 328 329 328 327 329 329 329 330 330 332 332 332 333 333 334 336 341 338 337
304 305 303 303 302 301 301 301 302 302 303 303 306 308 313 315 314 312 318 326 329 329 332 329 331 329 329 330 328 329 328 327 329 330 332 331 333 333 332 333 334 334 335 334 336 335 335
304 303 303 303 303 302 301 301 302 302 303 302 305 307 311 316 318 317 319 323 326 327 329 332 332 331 329 329 328 330 328 329 329 330 332 333 335 333 332 333 333 334 334 334 334 338 339
303 302 301 301 301 301 301 301 302 302 303 304 309 320 319 317 322 318 320 324 326 325 328 332 333 333 329 329 329 330 330 329 329 331 332 333 335 334 333 332 332 333 334 333 333 334 336
303 302 300 301 301 301 301 301 302 302 303 304 313 318 320 321 324 321 321 324 325 326 329 331 331 332 333 333 330 329 330 331 330 331 331 333 333 335 334 334 333 333 334 335 337 339 338
301 301 300 301 301 301 301 301 302 302 303 304 314 317 319 322 323 323 323 325 326 326 329 330 329 330 332 334 333 330 330 331 332 332 334 333 334 334 335 334 333 333 334 333 334 335 342
302 301 300 300 300 301 301 301 302 302 303 306 315 320 318 321 321 324 324 326 326 325 328 330 330 330 330 332 333 332 330 331 331 332 330 333 332 335 332 335 335 334 332 332 333 338 338
303 301 300 300 300 300 300 301 302 302 304 309 317 320 323 326 322 323 324 327 330 327 328 329 330 330 331 333 332 332 331 331 331 330 332 332 338 332 331 331 332 333 333 332 332 335 336
301 301 300 300 300 299 299 300 302 303 305 314 317 315 317 319 323 329 323 328 331 330 328 330 329 329 330 332 336 339 338 337 333 331 331 331 335 332 332 332 331 331 332 334 333 332 332
301 301 300 299 299 298 298 299 301 303 306 313 313 311 314 319 323 325 328 329 330 330 329 329 330 332 332 334 335 335 334 334 336 336 335 337 333 337 335 333 333 334 333 332 333 335 334
301 302 301 300 298 298 297 298 300 304 303 307 313 311 316 320 321 323 325 327 328 329 329 329 329 330 333 331 332 333 333 333 335 335 336 340 344 339 336 339 339 334 335 333 333 333 334
301 300 300 301 299 298 297 297 299 303 303 306 313 312 312 318 321 321 322 323 325 326 327 327 329 329 328 330 334 334 335 334 334 336 336 333 344 339 340 336 336 336 336 336 336 339 336
300 301 301 301 301 299 298 297 298 301 303 303 311 312 311 315 319 315 317 318 321 325 326 325 326 326 326 328 330 334 333 333 335 334 337 335 339 343 338 337 337 339 336 335 336 338 337
300 300 301 301 301 301 299 298 298 300 303 304 310 312 310 312 315 312 315 317 319 322 324 326 326 326 325 328 329 330 330 331 333 334 338 335 337 336 335 336 333 335 335 334 338 339 336
301 300 301 301 301 301 301 300 298 299 303 304 312 311 310 311 311 312 312 312 315 320 322 322 324 324 327 329 328 329 330 330 333 337 335 340 338 337 339 338 339 336 337 338 343 336 336
300 301 300 300 301 301 302 301 299 300 303 304 310 310 310 310 311 311 311 311 311 313 315 317 321 329 328 332 330 330 329 330 336 331 334 336 339 346 343 342 338 336 337 335 335 335 334
Wind_Speed
18 19 20 20 18 18 19 21 21 21 21 21 21 21 22 23 24 23 22 23 24 23 21 17 15 11 9 10 24 13 6 18 19 17 17 15 15 20 17 7 4 9 14 9 14 17 20
20 21 20 20 21 20 20 20 21 22 22 22 22 22 22 23 24 23 23 23 23 23 21 16 15 10 10 16 10 8 8 19 19 19 18 17 18 20 17 5 8 13 12 11 17 13 12
19 20 20 21 21 21 22 21 21 22 23 24 23 23 23 23 23 24 22 24 23 22 22 14 12 7 11 20 9 8 11 21 20 19 19 17 20 15 15 8 10 10 10 9 12 19 12
18 19 19 20 21 22 22 23 23 23 23 24 24 23 24 24 23 23 23 23 24 20 21 11 6 4 10 11 7 13 15 19 19 19 19 15 14 16 20 5 6 13 14 12 17 20 4
18 19 19 19 20 21 22 22 23 24 23 24 25 23 23 24 23 22 23 23 26 22 16 9 4 6 19 10 19 14 20 23 21 20 18 11 14 18 18 12 11 13 13 14 15 23 10
19 20 19 21 21 21 22 22 23 23 24 24 24 25 23 23 23 22 22 22 28 18 9 10 10 10 20 16 16 18 22 23 23 21 18 12 12 15 18 12 15 17 17 20 15 14 14
20 20 21 21 22 23 24 24 24 24 24 24 24 25 24 23 21 21 22 20 11 1 6 14 9 14 4 14 17 20 24 26 23 23 19 20 15 17 19 18 17 15 13 17 16 18 25
22 23 22 23 22 23 24 25 25 25 25 25 25 25 25 23 20 19 20 13 17 16 19 21 27 25 17 18 16 22 26 25 22 20 21 16 20 21 18 20 20 19 11 12 13 16 11
22 23 24 24 24 24 24 25 26 26 26 26 25 25 25 23 21 12 12 16 18 16 17 32 27 30 22 15 19 25 27 28 21 23 22 20 22 22 18 16 16 16 11 10 15 12 4
23 24 24 24 24 24 25 26 26 26 27 26 25 24 24 25 12 8 15 7 7 13 10 19 24 30 28 21 19 26 29 27 17 23 22 23 23 21 18 17 17 18 12 18 15 14 11
24 25 25 24 25 24 25 27 27 27 27 26 25 24 22 21 21 17 16 13 12 11 7 9 25 20 28 26 22 24 30 31 20 19 18 22 21 23 21 19 16 12 16 18 13 11 14
24 25 25 25 26 26 25 25 27 28 28 27 25 23 24 14 21 10 12 17 12 7 9 5 16 16 24 24 26 27 29 32 28 19 21 22 21 19 20 20 16 18 10 17 9 11 14
24 24 24 25 26 26 26 25 26 28 28 28 26 22 23 23 20 5 8 9 7 10 16 13 20 21 22 17 24 23 25 25 22 17 21 23 25 15 14 18 20 18 11 8 9 11 13
24 24 23 24 25 24 24 26 26 28 28 29 28 23 22 25 17 11 7 8 15 15 24 21 17 21 22 22 24 25 25 22 27 23 16 16 18 20 16 21 15 13 16 9 13 12 13
24 23 21 22 23 23 24 25 26 27 27 29 28 21 18 18 7 14 12 12 16 22 21 24 19 13 21 22 21 21 24 24 25 27 21 18 21 21 22 17 16 15 17 18 18 13 6
23 21 20 21 23 22 23 24 27 27 25 27 29 22 21 14 18 12 11 19 21 27 29 17 16 15 20 23 26 25 25 24 25 25 26 18 15 21 17 16 16 16 17 13 12 9 10
22 20 20 20 22 22 22 23 25 27 25 20 18 9 8 19 15 16 13 21 23 36 27 19 14 16 14 18 25 21 21 22 27 27 26 25 18 19 21 15 21 15 11 9 12 10 9
21 20 20 20 21 22 22 21 23 26 27 16 7 6 14 15 12 15 15 23 33 26 32 15 14 19 18 19 22 26 26 25 34 27 27 25 8 13 27 20 23 21 16 10 9 9 8
20 19 20 20 21 21 22 21 20 22 26 25 9 18 16 17 13 13 19 24 28 24 22 19 16 21 20 21 18 24 26 25 31 27 26 18 13 10 14 19 20 18 16 20 17 13 13
18 18 19 20 21 21 21 21 19 18 21 18 7 5 18 23 24 20 19 23 23 27 25 21 13 17 22 21 19 19 23 22 33 28 17 18 19 13 14 16 17 22 22 22 20 12 14
20 18 17 19 19 20 21 20 20 16 15 11 6 8 11 7 15 18 21 20 20 21 22 22 15 22 13 14 15 17 18 23 24 15 16 14 11 16 18 20 19 17 23 21 20 19 17
21 19 18 17 18 18 19 21 20 18 11 2 11 9 20 21 25 15 13 21 20 18 18 21 18 20 17 18 9 10 16 12 22 16 12 11 8 11 18 18 18 21 23 23 24 23 23
21 20 18 18 17 17 18 19 19 18 10 6 12 14 11 12 16 11 12 11 18 22 17 11 6 8 13 16 15 7 12 14 6 11 15 14 13 13 16 17 20 20 21 21 18 17 15
19 20 21 18 18 17 17 18 18 16 14 10 10 15 8 11 12 12 11 9 14 7 10 18 6 8 12 19 21 11 13 6 4 2 11 10 14 12 14 17 20 17 19 17 14 15 15
19 20 20 21 18 17 17 17 16 15 12 11 5 10 6 8 19 11 8 10 14 9 13 10 13 7 15 15 11 7 8 9 11 10 3 12 5 11 14 15 14 20 5 8 15 16 10
21 20 20 17 19 16 16 16 15 13 12 11 7 6 7 7 9 20 14 15 10 11 12 17 13 9 12 9 9 12 12 5 11 14 22 23 27 18 4 11 18 15 10 6 17 12 18
20 20 19 17 17 18 15 14 15 13 11 11 5 9 5 10 4 20 13 11 16 12 10 1 6 8 15 9 10 14 15 15 17 15 13 14 8 11 11 12 17 13 7 15 7 9 20
20 18 19 18 16 17 14 13 13 11 11 10 4 6 7 10 18 9 13 14 16 12 8 16 7 8 9 11 11 12 13 13 16 15 9 16 4 9 12 15 17 12 11 10 10 11 7
19 17 16 15 14 15 14 13 11 10 9 6 8 7 9 13 15 14 14 10 9 8 10 13 11 7 9 5 2 7 12 11 4 11 13 9 9 7 3 2 24 15 21 23 10 10 9
Wind_Direction
334 332 333 333 332 330 330 330 331 330 331 329 329 329 329 328 328 329 327 326 328 327 327 321 322 294 253 239 249 273 241 199 202 203 211 225 230 245 250 200 198 117 88 89 106 149 86
329 328 330 329 329 328 327 327 327 327 326 326 326 326 326 325 326 326 325 323 326 324 323 312 320 284 228 249 229 231 237 204 196 197 208 222 227 238 276 131 241 103 137 166 112 91 117
326 324 324 325 326 326 325 324 323 324 322 322 323 322 322 323 323 323 323 320 322 321 319 303 319 266 241 232 210 215 195 196 187 198 209 218 234 270 249 183 130 131 135 130 146 114 57
328 328 324 322 323 324 324 323 322 321 321 320 320 320 319 320 321 321 319 317 316 316 317 288 311 228 258 257 199 217 198 199 200 204 214 216 243 257 248 164 192 169 170 177 136 110 79
327 328 326 324 321 322 322 321 320 320 320 321 319 317 317 318 318 318 316 315 311 310 308 266 257 254 258 191 214 210 197 192 196 202 215 242 219 247 243 207 192 208 197 154 125 125 154
327 325 326 325 322 320 320 320 317 317 319 319 319 317 316 317 317 316 313 314 308 305 286 262 231 267 240 223 204 199 191 189 195 196 213 216 211 233 240 184 210 202 216 163 160 180 158
325 323 322 321 320 320 319 318 318 316 317 318 318 316 315 315 315 313 311 321 306 256 233 239 228 231 233 203 182 187 184 188 193 203 206 205 214 218 216 203 227 212 221 157 244 155 163
323 321 319 318 318 317 316 316 316 315 315 316 316 315 314 313 312 306 302 280 280 324 302 272 256 245 265 184 171 186 183 190 196 203 205 195 216 221 221 213 233 237 205 203 203 154 179
326 321 321 321 319 318 316 315 313 315 313 313 314 314 313 313 312 310 302 268 295 299 285 281 252 230 224 192 194 190 191 199 196 207 202 207 212 232 232 215 229 251 238 222 199 150 178
327 326 323 323 320 318 317 316 315 314 313 312 312 312 314 316 308 256 271 311 312 302 281 262 222 224 206 208 216 193 193 203 197 210 206 226 212 221 234 231 206 232 216 261 229 176 212
327 327 325 321 320 318 317 316 317 315 313 309 308 309 306 316 298 280 280 318 310 295 274 183 193 187 193 199 203 194 192 206 211 211 219 214 232 211 224 234 231 240 227 231 238 240 235
327 326 324 324 323 320 319 318 318 317 313 309 305 304 299 303 289 303 315 301 297 240 244 187 152 186 188 194 215 190 190 210 227 216 221 237 219 224 210 227 221 222 255 205 224 253 252
326 325 328 327 325 324 323 322 323 321 315 311 302 297 287 280 267 295 266 301 230 238 242 273 160 187 197 188 206 196 188 204 217 218 218 221 232 201 209 204 214 213 206 208 226 231 242
324 324 326 326 328 327 327 325 327 324 322 315 302 297 282 271 272 268 272 259 238 237 243 266 174 184 209 190 206 193 190 202 217 221 214 210 222 198 202 215 201 193 221 214 207 232 230
325 327 327 328 330 332 330 328 328 328 328 321 310 305 276 269 234 211 225 231 224 242 250 241 258 202 202 201 206 189 195 206 208 223 227 198 228 188 208 224 189 185 234 241 258 265 255
321 326 328 327 329 333 334 332 331 331 333 330 321 315 279 221 223 190 219 241 249 244 259 298 280 234 203 201 208 190 195 206 216 216 236 196 223 187 209 206 224 219 207 234 249 261 281
321 325 329 328 330 333 335 336 337 333 337 335 322 289 294 173 180 204 222 230 240 256 272 278 271 283 243 205 208 201 202 211 214 213 228 237 207 191 193 192 216 208 230 217 247 229 253
318 327 328 330 329 332 333 338 340 339 339 344 293 256 192 181 204 226 228 235 259 250 239 246 254 276 292 287 223 220 202 203 202 217 219 236 244 250 195 195 206 226 197 214 245 254 281
318 320 323 326 328 332 333 336 342 345 342 343 292 270 246 212 236 232 230 241 257 252 255 262 226 250 266 270 276 230 225 202 205 212 217 220 237 245 236 199 197 222 217 214 224 241 259
315 319 321 323 329 332 335 334 337 346 338 336 291 266 223 218 241 254 243 235 239 245 246 271 270 268 247 259 271 268 212 230 211 205 216 217 215 230 244 231 196 201 216 234 252 235 238
313 316 316 319 324 330 335 336 335 340 333 320 250 271 352 272 222 230 255 264 262 234 228 256 266 276 261 258 256 260 252 215 220 191 191 217 226 238 233 259 267 239 210 219 238 263 270
306 307 312 314 321 327 334 338 340 341 343 294 311 344 330 300 292 283 242 247 266 254 229 223 229 264 249 257 301 345 347 286 215 159 174 193 212 234 253 253 243 252 264 208 214 225 243
299 303 302 308 312 321 330 336 344 346 4 331 337 317 304 291 286 277 253 255 253 277 228 233 194 291 283 346 347 323 314 316 346 177 191 192 205 223 240 242 255 257 247 251 238 227 235
288 296 302 301 306 313 322 330 337 350 351 332 327 328 295 280 269 284 331 313 288 327 349 336 196 271 0 326 316 263 270 270 140 11 348 229 219 208 232 243 243 249 265 252 247 241 241
292 291 291 299 296 306 313 320 325 341 336 341 355 322 310 298 320 319 324 313 304 309 286 288 308 350 322 310 290 257 243 228 190 153 110 343 251 213 228 232 244 252 304 38 36 325 291
284 286 299 300 302 301 306 310 315 326 328 325 324 309 299 311 13 341 320 303 299 272 260 266 266 298 306 278 273 258 246 192 226 199 186 197 170 253 255 248 255 263 182 95 358 311 11
284 279 281 288 298 301 305 304 307 317 326 323 250 327 301 280 275 349 359 331 327 329 293 246 247 301 242 255 245 250 238 243 228 238 228 231 214 240 222 248 265 287 114 105 174 248 308
277 278 275 280 285 295 302 304 303 307 322 329 241 314 341 297 287 317 334 335 329 337 325 357 276 222 274 235 240 244 254 238 240 235 210 273 262 253 246 249 247 332 104 154 82 97 43
274 275 276 268 274 291 298 304 295 296 309 308 318 309 314 288 270 297 298 297 276 280 325 319 309 2 4 295 305 274 258 274 250 266 307 213 169 172 310 6 330 65 95 104 96 78 53